,,Stat6,,Stat2,,Stat8,,Stat9,,Stat10,,Wind1,,Wind1,
time,status,PA1M_AVG,status,PR1M_SUM,status,RH1M_AVG,status,SR1M_AVG,status,TA1M_AVG,status,W1dAve1m,status,W1sAve1m,
2005-04-08, 00:00:00,VALID,919.149,VALID,0,VALID,98.9308,VALID,-0.0509425,VALID,20.1957,VALID,34,VALID,0.683594,
2005-04-08, 00:01:00,VALID,919.127,VALID,0,VALID,98.9474,VALID,-0.0339617,VALID,20.1804,VALID,41,VALID,0.823401,
2005-04-08, 00:02:00,VALID,919.111,VALID,0,VALID,99.0338,VALID,-0.0679233,VALID,20.1709,VALID,41,VALID,0.623285,
2005-04-08, 00:03:00,VALID,919.098,VALID,0,VALID,99.0809,VALID,-0.0509425,VALID,20.1548,VALID,41,VALID,0.390262,
2005-04-08, 00:04:00,VALID,919.106,VALID,0,VALID,99.1139,VALID,-0.0509425,VALID,20.1548,VALID,41,VALID,0.307813,
2005-04-08, 00:05:00,VALID,919.099,VALID,0,VALID,99.2729,VALID,-0.0339617,VALID,20.1354,VALID,73,VALID,0.49375,
2005-04-08, 00:06:00,VALID,919.101,VALID,0,VALID,99.4585,VALID,-0.0509425,VALID,20.119,VALID,109,VALID,0.65734,
2005-04-08, 00:07:00,VALID,919.08,VALID,0,VALID,99.498,VALID,-0.0169808,VALID,20.1193,VALID,109,VALID,0.657031,
2005-04-08, 00:08:00,VALID,919.059,VALID,0,VALID,99.5183,VALID,-0.0849042,VALID,20.0867,VALID,106,VALID,0.610863,
2005-04-08, 00:09:00,VALID,919.043,VALID,0,VALID,99.5069,VALID,-0.0509425,VALID,20.0703,VALID,106,VALID,0.48947,
2005-04-08, 00:10:00,VALID,919.047,VALID,0,VALID,99.517,VALID,-0.0679233,VALID,20.0676,VALID,106,VALID,0.257102,
2005-04-08, 00:11:00,VALID,919.04,VALID,0,VALID,99.531,VALID,-0.0679233,VALID,20.0676,VALID,107,VALID,0.424293,
2005-04-08, 00:12:00,VALID,919.021,VALID,0,VALID,99.5552,VALID,-0.0679233,VALID,20.0576,VALID,122,VALID,0.475142,
2005-04-08, 00:13:00,VALID,919.011,VALID,0,VALID,99.6569,VALID,-0.0509425,VALID,20.0579,VALID,146,VALID,0.398624,
2005-04-08, 00:14:00,VALID,918.998,VALID,0,VALID,99.751,VALID,-0.0849042,VALID,20.0775,VALID,147,VALID,0.361737,
2005-04-08, 00:15:00,VALID,918.996,VALID,0,VALID,99.7866,VALID,-0.0679233,VALID,20.088,VALID,155,VALID,0.280297,
2005-04-08, 00:16:00,VALID,918.989,VALID,0,VALID,99.7892,VALID,-0.0339617,VALID,20.0579,VALID,155,VALID,0.186357,
2005-04-08, 00:17:00,VALID,918.964,VALID,0,VALID,99.7879,VALID,-0.0679233,VALID,20.0383,VALID,154,VALID,0.162388,
2005-04-08, 00:18:00,VALID,918.954,VALID,0,VALID,99.6874,VALID,-0.0679233,VALID,20.0229,VALID,137,VALID,0.365734,
2005-04-08, 00:19:00,VALID,918.941,VALID,0,VALID,99.6328,VALID,0,VALID,19.9926,VALID,88,VALID,0.447545,
2005-04-08, 00:20:00,VALID,918.954,VALID,0,VALID,99.5018,VALID,0.0339617,VALID,19.9565,VALID,68,VALID,0.251116,
2005-04-08, 00:21:00,VALID,918.955,VALID,0,VALID,99.5463,VALID,0.0339617,VALID,19.9275,VALID,68,VALID,0.00890262,
2005-04-08, 00:22:00,VALID,918.948,VALID,0,VALID,99.6366,VALID,0,VALID,19.9307,VALID,68,VALID,0.049782,
2005-04-08, 00:23:00,VALID,918.947,VALID,0,VALID,99.765,VALID,0.0509425,VALID,19.9275,VALID,68,VALID,0.0925347,
2005-04-08, 00:24:01,VALID,918.939,VALID,0,VALID,99.9201,VALID,0.0509425,VALID,19.9238,VALID,68,VALID,0,
2005-04-08, 00:25:00,VALID,918.945,VALID,0,VALID,99.957,VALID,0.0509425,VALID,19.9407,VALID,68,VALID,0.0988281,
2005-04-08, 00:26:00,VALID,918.933,VALID,0,VALID,99.9189,VALID,0.0509425,VALID,19.9372,VALID,68,VALID,0.0690104,
2005-04-08, 00:27:00,VALID,918.926,VALID,0,VALID,99.9718,VALID,0.0169808,VALID,19.9474,VALID,68,VALID,0,
2005-04-08, 00:28:00,VALID,918.932,VALID,0,VALID,100,VALID,0.0339617,VALID,19.9662,VALID,68,VALID,0,
2005-04-08, 00:29:01,VALID,918.916,VALID,0,VALID,100,VALID,0.0679233,VALID,19.9665,VALID,68,VALID,0,
2005-04-08, 00:30:00,VALID,918.905,VALID,0,VALID,99.9779,VALID,0,VALID,19.969,VALID,68,VALID,0,
2005-04-08, 00:31:00,VALID,918.87,VALID,0,VALID,99.8032,VALID,0,VALID,19.9374,VALID,68,VALID,0.33718,
2005-04-08, 00:32:00,VALID,918.842,VALID,0,VALID,99.5361,VALID,0.0169808,VALID,19.9019,VALID,66,VALID,0.537791,
2005-04-08, 00:33:00,VALID,918.826,VALID,0,VALID,99.6811,VALID,0.0169808,VALID,19.8858,VALID,51,VALID,0.405035,
2005-04-08, 00:34:00,VALID,918.817,VALID,0,VALID,99.8591,VALID,0,VALID,19.9091,VALID,51,VALID,0.0554315,
2005-04-08, 00:35:01,VALID,918.818,VALID,0,VALID,99.896,VALID,-0.0509425,VALID,19.9295,VALID,51,VALID,0,
2005-04-08, 00:36:00,VALID,918.809,VALID,0,VALID,99.8655,VALID,-0.0169808,VALID,19.9325,VALID,51,VALID,0,
2005-04-08, 00:37:00,VALID,918.793,VALID,0,VALID,99.8032,VALID,-0.0169808,VALID,19.9253,VALID,51,VALID,0,
2005-04-08, 00:38:00,VALID,918.766,VALID,0,VALID,99.6404,VALID,-0.0169808,VALID,19.9352,VALID,47,VALID,0.456445,
2005-04-08, 00:39:00,VALID,918.759,VALID,0,VALID,99.5514,VALID,-0.0169808,VALID,19.9387,VALID,31,VALID,0.581845,
2005-04-08, 00:40:01,VALID,918.756,VALID,0,VALID,99.3339,VALID,-0.0169808,VALID,19.9317,VALID,23,VALID,0.28404,
2005-04-08, 00:41:00,VALID,918.751,VALID,0,VALID,99.3187,VALID,0,VALID,19.9248,VALID,23,VALID,0.0284455,
2005-04-08, 00:42:01,VALID,918.761,VALID,0,VALID,99.2284,VALID,-0.0169808,VALID,19.9218,VALID,87,VALID,0.406597,
2005-04-08, 00:43:00,VALID,918.741,VALID,0,VALID,99.1139,VALID,-0.0169808,VALID,19.9354,VALID,183,VALID,0.197493,
2005-04-08, 00:44:01,VALID,918.721,VALID,0,VALID,99.0377,VALID,-0.0169808,VALID,19.932,VALID,183,VALID,0,
2005-04-08, 00:45:00,VALID,918.704,VALID,0,VALID,98.9219,VALID,0,VALID,19.9513,VALID,113,VALID,0.453835,
2005-04-08, 00:46:00,VALID,918.706,VALID,0,VALID,98.6562,VALID,-0.0169808,VALID,19.9384,VALID,73,VALID,0.408854,
2005-04-08, 00:47:01,VALID,918.715,VALID,0,VALID,98.3815,VALID,0,VALID,19.9193,VALID,72,VALID,0.150298,
2005-04-08, 00:48:00,VALID,918.709,VALID,0,VALID,98.3421,VALID,0,VALID,19.8997,VALID,72,VALID,0,
2005-04-08, 00:49:00,VALID,918.714,VALID,0,VALID,98.2899,VALID,0.0169808,VALID,19.8709,VALID,72,VALID,0.0432546,
2005-04-08, 00:50:00,VALID,918.692,VALID,0,VALID,98.3395,VALID,0,VALID,19.8386,VALID,72,VALID,0.315874,
2005-04-08, 00:51:01,VALID,918.697,VALID,0,VALID,98.5125,VALID,-0.0169808,VALID,19.8418,VALID,72,VALID,0.396763,
2005-04-08, 00:52:01,VALID,918.699,VALID,0,VALID,98.4527,VALID,0,VALID,19.809,VALID,72,VALID,0.0804869,
2005-04-08, 00:53:00,VALID,918.697,VALID,0,VALID,98.3853,VALID,0,VALID,19.7998,VALID,72,VALID,0,
2005-04-08, 00:54:01,VALID,918.703,VALID,0,VALID,98.5188,VALID,-0.0169808,VALID,19.7969,VALID,72,VALID,0.137355,
2005-04-08, 00:55:00,VALID,918.693,VALID,0,VALID,98.7604,VALID,-0.0339617,VALID,19.7964,VALID,72,VALID,0.209339,
2005-04-08, 00:56:00,VALID,918.671,VALID,0,VALID,98.6587,VALID,0,VALID,19.7969,VALID,72,VALID,0.289621,
2005-04-08, 00:57:01,VALID,918.626,VALID,0,VALID,98.9931,VALID,0,VALID,19.81,VALID,72,VALID,0.426962,
2005-04-08, 00:58:01,VALID,918.598,VALID,0,VALID,99.2004,VALID,0,VALID,19.8259,VALID,71,VALID,0.505632,
2005-04-08, 00:59:01,VALID,918.581,VALID,0,VALID,98.6396,VALID,0,VALID,19.7802,VALID,58,VALID,0.612847,
2005-04-08, 01:00:00,VALID,918.571,VALID,0,VALID,98.4184,VALID,0,VALID,19.729,VALID,58,VALID,0.619048,
2005-04-08, 01:01:00,VALID,918.563,VALID,0,VALID,98.4642,VALID,0,VALID,19.6968,VALID,58,VALID,0.441016,
2005-04-08, 01:02:01,VALID,918.546,VALID,0,VALID,98.4947,VALID,0,VALID,19.661,VALID,58,VALID,0.215732,
2005-04-08, 01:03:01,VALID,918.531,VALID,0,VALID,98.6078,VALID,0,VALID,19.6386,VALID,58,VALID,0.206759,
2005-04-08, 01:04:00,VALID,918.508,VALID,0,VALID,98.824,VALID,-0.0509425,VALID,19.6262,VALID,58,VALID,0.316134,
2005-04-08, 01:05:01,VALID,918.494,VALID,0,VALID,99.1902,VALID,-0.118866,VALID,19.62,VALID,58,VALID,0.346112,
2005-04-08, 01:06:00,VALID,918.463,VALID,0,VALID,99.409,VALID,-0.101885,VALID,19.6369,VALID,67,VALID,0.485677,
2005-04-08, 01:07:00,VALID,918.448,VALID,0,VALID,99.4217,VALID,-0.135847,VALID,19.6334,VALID,95,VALID,0.564317,
2005-04-08, 01:08:01,VALID,918.439,VALID,0,VALID,99.6048,VALID,-0.101885,VALID,19.6334,VALID,109,VALID,0.761896,
2005-04-08, 01:09:00,VALID,918.408,VALID,0,VALID,99.7256,VALID,-0.118866,VALID,19.6426,VALID,109,VALID,0.820898,
2005-04-08, 01:10:01,VALID,918.389,VALID,0,VALID,99.9537,VALID,-0.118866,VALID,19.6761,VALID,109,VALID,0.952069,
2005-04-08, 01:11:00,VALID,918.364,VALID,0,VALID,100,VALID,-0.118866,VALID,19.7077,VALID,99,VALID,1.09623,
2005-04-08, 01:12:01,VALID,918.341,VALID,0,VALID,99.9639,VALID,-0.101885,VALID,19.7303,VALID,81,VALID,0.892805,
2005-04-08, 01:13:01,VALID,918.319,VALID,0,VALID,99.7625,VALID,-0.101885,VALID,19.7109,VALID,74,VALID,0.780134,
2005-04-08, 01:14:00,VALID,918.298,VALID,0,VALID,99.7052,VALID,-0.101885,VALID,19.7211,VALID,69,VALID,0.660684,
2005-04-08, 01:15:00,VALID,918.289,VALID,0,VALID,99.8121,VALID,-0.101885,VALID,19.7276,VALID,69,VALID,0.322731,
2005-04-08, 01:16:00,VALID,918.297,VALID,0,VALID,99.84,VALID,-0.101885,VALID,19.7204,VALID,69,VALID,0.220703,
2005-04-08, 01:17:00,VALID,918.267,VALID,0,VALID,99.8375,VALID,-0.118866,VALID,19.7338,VALID,71,VALID,0.416992,
2005-04-08, 01:18:00,VALID,918.255,VALID,0,VALID,99.8146,VALID,-0.101885,VALID,19.7305,VALID,77,VALID,0.383345,
2005-04-08, 01:19:00,VALID,918.24,VALID,0,VALID,99.8706,VALID,-0.101885,VALID,19.7238,VALID,105,VALID,0.639915,
2005-04-08, 01:20:00,VALID,918.221,VALID,0,VALID,99.9741,VALID,-0.0339617,VALID,19.7328,VALID,108,VALID,0.805246,
2005-04-08, 01:21:00,VALID,918.221,VALID,0,VALID,100,VALID,-0.0169808,VALID,19.7325,VALID,108,VALID,0.730382,
2005-04-08, 01:22:00,VALID,918.213,VALID,0,VALID,100,VALID,-0.0509425,VALID,19.7325,VALID,108,VALID,0.481771,
2005-04-08, 01:23:00,VALID,918.214,VALID,0,VALID,100,VALID,-0.0169808,VALID,19.7323,VALID,108,VALID,0.345117,
2005-04-08, 01:24:00,VALID,918.197,VALID,0,VALID,100,VALID,-0.0169808,VALID,19.7358,VALID,108,VALID,0.556463,
2005-04-08, 01:25:00,VALID,918.179,VALID,0,VALID,100,VALID,-0.0169808,VALID,19.7129,VALID,108,VALID,0.396391,
2005-04-08, 01:26:00,VALID,918.144,VALID,0,VALID,100,VALID,0,VALID,19.7064,VALID,108,VALID,0.52567,
2005-04-08, 01:27:01,VALID,918.108,VALID,0,VALID,100,VALID,0,VALID,19.7,VALID,108,VALID,0.656808,
2005-04-08, 01:28:01,VALID,918.08,VALID,0,VALID,100,VALID,0,VALID,19.6742,VALID,102,VALID,0.578658,
2005-04-08, 01:29:00,VALID,918.069,VALID,0,VALID,100,VALID,0,VALID,19.6481,VALID,102,VALID,0.4375,
2005-04-08, 01:30:01,VALID,918.049,VALID,0,VALID,100,VALID,0,VALID,19.6247,VALID,102,VALID,0.251736,
2005-04-08, 01:31:01,VALID,918.036,VALID,0,VALID,100,VALID,0,VALID,19.6223,VALID,102,VALID,0.155185,
2005-04-08, 01:32:00,VALID,918.026,VALID,0,VALID,100,VALID,-0.0339617,VALID,19.6198,VALID,102,VALID,0.360973,
2005-04-08, 01:33:01,VALID,918.016,VALID,0,VALID,100,VALID,-0.0169808,VALID,19.6155,VALID,102,VALID,0.362926,
2005-04-08, 01:34:00,VALID,917.993,VALID,0,VALID,100,VALID,-0.0169808,VALID,19.6198,VALID,102,VALID,0.504001,
2005-04-08, 01:35:01,VALID,917.983,VALID,0,VALID,100,VALID,-0.0679233,VALID,19.617,VALID,99,VALID,0.485742,
2005-04-08, 01:36:01,VALID,917.977,VALID,0,VALID,100,VALID,-0.0339617,VALID,19.6004,VALID,90,VALID,0.38457,
2005-04-08, 01:37:00,VALID,917.957,VALID,0,VALID,100,VALID,-0.0169808,VALID,19.6039,VALID,90,VALID,0.130682,
2005-04-08, 01:38:00,VALID,917.937,VALID,0,VALID,100,VALID,-0.0169808,VALID,19.5967,VALID,91,VALID,0.372049,
2005-04-08, 01:39:00,VALID,917.932,VALID,0,VALID,100,VALID,-0.0339617,VALID,19.5842,VALID,94,VALID,0.696948,
2005-04-08, 01:40:00,VALID,917.929,VALID,0,VALID,100,VALID,-0.0339617,VALID,19.5775,VALID,96,VALID,0.476563,
2005-04-08, 01:41:00,VALID,917.927,VALID,0,VALID,100,VALID,0,VALID,19.5942,VALID,96,VALID,0.0354959,
2005-04-08, 01:42:01,VALID,917.926,VALID,0,VALID,99.9977,VALID,-0.0169808,VALID,19.5939,VALID,96,VALID,0,
2005-04-08, 01:43:01,VALID,917.913,VALID,0,VALID,99.9456,VALID,-0.0169808,VALID,19.5649,VALID,96,VALID,0,
2005-04-08, 01:44:01,VALID,917.897,VALID,0,VALID,99.8998,VALID,-0.0339617,VALID,19.5651,VALID,96,VALID,0,
2005-04-08, 01:45:00,VALID,917.885,VALID,0,VALID,99.7383,VALID,-0.0169808,VALID,19.5361,VALID,96,VALID,0,
2005-04-08, 01:46:01,VALID,917.868,VALID,0,VALID,99.6836,VALID,-0.0169808,VALID,19.513,VALID,96,VALID,0,
2005-04-08, 01:47:00,VALID,917.844,VALID,0,VALID,99.5933,VALID,-0.0509425,VALID,19.4941,VALID,96,VALID,0,
2005-04-08, 01:48:00,VALID,917.826,VALID,0,VALID,99.4115,VALID,0,VALID,19.4755,VALID,96,VALID,0,
2005-04-08, 01:49:00,VALID,917.812,VALID,0,VALID,99.4764,VALID,-0.0169808,VALID,19.4553,VALID,96,VALID,0,
2005-04-08, 01:50:01,VALID,917.787,VALID,0,VALID,99.5183,VALID,-0.0169808,VALID,19.436,VALID,96,VALID,0.145461,
2005-04-08, 01:51:00,VALID,917.762,VALID,0,VALID,99.3683,VALID,-0.0509425,VALID,19.4005,VALID,67,VALID,0.51543,
2005-04-08, 01:52:00,VALID,917.744,VALID,0,VALID,99.278,VALID,0,VALID,19.3359,VALID,58,VALID,0.590402,
2005-04-08, 01:53:00,VALID,917.723,VALID,0,VALID,99.3594,VALID,-0.0169808,VALID,19.3205,VALID,58,VALID,0.609561,
2005-04-08, 01:54:00,VALID,917.724,VALID,0,VALID,99.47,VALID,-0.0339617,VALID,19.2872,VALID,58,VALID,0.599414,
2005-04-08, 01:55:01,VALID,917.717,VALID,0,VALID,99.4001,VALID,0,VALID,19.2616,VALID,57,VALID,0.646439,
2005-04-08, 01:56:00,VALID,917.71,VALID,0,VALID,99.4369,VALID,-0.0169808,VALID,19.2266,VALID,54,VALID,0.597834,
2005-04-08, 01:57:01,VALID,917.726,VALID,0,VALID,99.7078,VALID,-0.0679233,VALID,19.207,VALID,54,VALID,0.448552,
2005-04-08, 01:58:01,VALID,917.727,VALID,0,VALID,99.8947,VALID,0,VALID,19.2229,VALID,54,VALID,0.348544,
2005-04-08, 01:59:01,VALID,917.743,VALID,0,VALID,99.9023,VALID,0,VALID,19.2226,VALID,54,VALID,0.188408,
2005-04-08, 02:00:00,VALID,917.749,VALID,0,VALID,99.8032,VALID,-0.0339617,VALID,19.207,VALID,54,VALID,0,
2005-04-08, 02:01:00,VALID,917.755,VALID,0,VALID,99.6506,VALID,-0.0169808,VALID,19.1876,VALID,54,VALID,0,
2005-04-08, 02:02:01,VALID,917.754,VALID,0,VALID,99.7027,VALID,-0.0339617,VALID,19.1779,VALID,54,VALID,0,
2005-04-08, 02:03:01,VALID,917.742,VALID,0,VALID,99.7803,VALID,0,VALID,19.1814,VALID,54,VALID,0,
2005-04-08, 02:04:01,VALID,917.745,VALID,0,VALID,99.765,VALID,-0.0339617,VALID,19.165,VALID,54,VALID,0,
2005-04-08, 02:05:01,VALID,917.743,VALID,0,VALID,99.8451,VALID,-0.0339617,VALID,19.1715,VALID,54,VALID,0,
2005-04-08, 02:06:01,VALID,917.745,VALID,0,VALID,99.9507,VALID,-0.0169808,VALID,19.1809,VALID,54,VALID,0,
2005-04-08, 02:07:01,VALID,917.745,VALID,0,VALID,99.983,VALID,-0.0169808,VALID,19.1911,VALID,54,VALID,0,
2005-04-08, 02:08:01,VALID,917.741,VALID,0,VALID,100,VALID,-0.0339617,VALID,19.2169,VALID,54,VALID,0,
2005-04-08, 02:09:00,VALID,917.726,VALID,0,VALID,100,VALID,-0.0339617,VALID,19.2301,VALID,54,VALID,0.274148,
2005-04-08, 02:10:01,VALID,917.716,VALID,0,VALID,99.9702,VALID,0,VALID,19.246,VALID,54,VALID,0.543341,
2005-04-08, 02:11:01,VALID,917.722,VALID,0,VALID,99.8057,VALID,-0.0169808,VALID,19.2395,VALID,54,VALID,0.381597,
2005-04-08, 02:12:01,VALID,917.707,VALID,0,VALID,99.6366,VALID,-0.0169808,VALID,19.2365,VALID,54,VALID,0.243118,
2005-04-08, 02:13:01,VALID,917.71,VALID,0,VALID,99.4967,VALID,-0.0339617,VALID,19.2169,VALID,54,VALID,0.135831,
2005-04-08, 02:14:01,VALID,917.722,VALID,0,VALID,99.3848,VALID,-0.0679233,VALID,19.2042,VALID,54,VALID,0,
2005-04-08, 02:15:01,VALID,917.721,VALID,0,VALID,99.3416,VALID,-0.0339617,VALID,19.1978,VALID,54,VALID,0,
2005-04-08, 02:16:01,VALID,917.713,VALID,0,VALID,99.2627,VALID,0,VALID,19.1846,VALID,54,VALID,0.00093006,
2005-04-08, 02:17:01,VALID,917.726,VALID,0,VALID,99.3479,VALID,-0.0169808,VALID,19.201,VALID,54,VALID,0,
2005-04-08, 02:18:01,VALID,917.726,VALID,0,VALID,99.4535,VALID,-0.0169808,VALID,19.2172,VALID,54,VALID,0,
2005-04-08, 02:19:00,VALID,917.72,VALID,0,VALID,99.4026,VALID,-0.0169808,VALID,19.2271,VALID,54,VALID,0,
2005-04-08, 02:20:01,VALID,917.704,VALID,0,VALID,99.3377,VALID,-0.0339617,VALID,19.2144,VALID,54,VALID,0,
2005-04-08, 02:21:01,VALID,917.69,VALID,0,VALID,99.0745,VALID,-0.0169808,VALID,19.1879,VALID,54,VALID,0.119048,
2005-04-08, 02:22:01,VALID,917.699,VALID,0,VALID,98.6829,VALID,0,VALID,19.1265,VALID,54,VALID,0.356399,
2005-04-08, 02:23:01,VALID,917.704,VALID,0,VALID,98.6943,VALID,0,VALID,19.1009,VALID,54,VALID,0.363889,
2005-04-08, 02:24:01,VALID,917.729,VALID,0,VALID,98.8494,VALID,-0.0169808,VALID,19.0788,VALID,54,VALID,0.235577,
2005-04-08, 02:25:01,VALID,917.741,VALID,0,VALID,98.9868,VALID,0,VALID,19.0495,VALID,54,VALID,0,
2005-04-08, 02:26:01,VALID,917.756,VALID,0,VALID,98.9118,VALID,0,VALID,19.0207,VALID,54,VALID,0.0739462,
2005-04-08, 02:27:01,VALID,917.763,VALID,0,VALID,99.0504,VALID,0,VALID,18.9812,VALID,54,VALID,0.310156,
2005-04-08, 02:28:00,VALID,917.762,VALID,0,VALID,98.9448,VALID,0,VALID,18.9492,VALID,54,VALID,0.39027,
2005-04-08, 02:29:00,VALID,917.76,VALID,0,VALID,98.9677,VALID,-0.0169808,VALID,18.9075,VALID,54,VALID,0.414971,
2005-04-08, 02:30:01,VALID,917.76,VALID,0,VALID,99.119,VALID,-0.0169808,VALID,18.865,VALID,54,VALID,0.467297,
2005-04-08, 02:31:01,VALID,917.758,VALID,0,VALID,99.6696,VALID,0,VALID,18.8687,VALID,54,VALID,0.366461,
2005-04-08, 02:32:00,VALID,917.756,VALID,0,VALID,99.4878,VALID,-0.0169808,VALID,18.8556,VALID,54,VALID,0.28853,
2005-04-08, 02:33:01,VALID,917.77,VALID,0,VALID,99.1623,VALID,0,VALID,18.7908,VALID,54,VALID,0.0120908,
2005-04-08, 02:34:01,VALID,917.764,VALID,0,VALID,99.3276,VALID,-0.0509425,VALID,18.7753,VALID,54,VALID,0,
2005-04-08, 02:35:01,VALID,917.752,VALID,0,VALID,99.5081,VALID,-0.101885,VALID,18.7634,VALID,54,VALID,0,
2005-04-08, 02:36:01,VALID,917.736,VALID,0,VALID,99.9499,VALID,-0.101885,VALID,18.7823,VALID,54,VALID,0.0616319,
2005-04-08, 02:37:01,VALID,917.731,VALID,0,VALID,100,VALID,-0.101885,VALID,18.8473,VALID,54,VALID,0.256288,
2005-04-08, 02:38:01,VALID,917.724,VALID,0,VALID,100,VALID,-0.101885,VALID,18.9154,VALID,54,VALID,0.236049,
2005-04-08, 02:39:01,VALID,917.722,VALID,0,VALID,100,VALID,-0.101885,VALID,18.9506,VALID,54,VALID,0.228795,
2005-04-08, 02:40:01,VALID,917.723,VALID,0,VALID,100,VALID,-0.0509425,VALID,18.9569,VALID,54,VALID,0.243786,
2005-04-08, 02:41:01,VALID,917.728,VALID,0,VALID,100,VALID,-0.101885,VALID,18.9772,VALID,54,VALID,0.134859,
2005-04-08, 02:42:01,VALID,917.737,VALID,0,VALID,100,VALID,-0.0849042,VALID,18.9633,VALID,54,VALID,0.144259,
2005-04-08, 02:43:01,VALID,917.741,VALID,0,VALID,100,VALID,-0.101885,VALID,18.9566,VALID,54,VALID,0.270312,
2005-04-08, 02:44:01,VALID,917.746,VALID,0,VALID,100,VALID,-0.101885,VALID,18.9571,VALID,54,VALID,0.458789,
2005-04-08, 02:45:01,VALID,917.726,VALID,0,VALID,99.9674,VALID,-0.0679233,VALID,18.9313,VALID,54,VALID,0.30564,
2005-04-08, 02:46:01,VALID,917.724,VALID,0,VALID,99.9763,VALID,-0.101885,VALID,18.8992,VALID,70,VALID,0.605097,
2005-04-08, 02:47:01,VALID,917.708,VALID,0,VALID,100,VALID,-0.101885,VALID,18.9345,VALID,83,VALID,0.56901,
2005-04-08, 02:48:01,VALID,917.688,VALID,0,VALID,100,VALID,-0.101885,VALID,18.9347,VALID,86,VALID,0.483356,
2005-04-08, 02:49:01,VALID,917.69,VALID,0,VALID,100,VALID,-0.0509425,VALID,18.9405,VALID,93,VALID,0.72311,
2005-04-08, 02:50:01,VALID,917.689,VALID,0,VALID,100,VALID,0,VALID,18.9783,VALID,94,VALID,0.714648,
2005-04-08, 02:51:01,VALID,917.69,VALID,0,VALID,100,VALID,-0.0169808,VALID,19.0237,VALID,96,VALID,0.752604,
2005-04-08, 02:52:01,VALID,917.709,VALID,0,VALID,100,VALID,0.0169808,VALID,19.0622,VALID,100,VALID,0.641369,
2005-04-08, 02:53:00,VALID,917.697,VALID,0,VALID,100,VALID,-0.0339617,VALID,19.0756,VALID,100,VALID,0.520894,
2005-04-08, 02:54:00,VALID,917.711,VALID,0,VALID,100,VALID,-0.0339617,VALID,19.0756,VALID,100,VALID,0.389137,
2005-04-08, 02:55:00,VALID,917.708,VALID,0,VALID,100,VALID,0,VALID,19.0431,VALID,107,VALID,0.563227,
2005-04-08, 02:56:00,VALID,917.686,VALID,0,VALID,100,VALID,0,VALID,19.0329,VALID,109,VALID,0.766304,
2005-04-08, 02:57:00,VALID,917.674,VALID,0,VALID,100,VALID,0,VALID,19.062,VALID,102,VALID,0.688058,
2005-04-08, 02:58:00,VALID,917.664,VALID,0,VALID,100,VALID,-0.0169808,VALID,19.0331,VALID,100,VALID,0.417111,
2005-04-08, 02:59:00,VALID,917.634,VALID,0,VALID,100,VALID,-0.0169808,VALID,18.9624,VALID,98,VALID,0.501065,
2005-04-08, 03:00:00,VALID,917.632,VALID,0,VALID,100,VALID,0,VALID,18.9494,VALID,85,VALID,1.03385,
2005-04-08, 03:01:00,VALID,917.613,VALID,0,VALID,100,VALID,-0.0169808,VALID,18.9912,VALID,85,VALID,0.966493,
2005-04-08, 03:02:00,VALID,917.607,VALID,0,VALID,100,VALID,0,VALID,19.011,VALID,84,VALID,0.682958,
2005-04-08, 03:03:00,VALID,917.616,VALID,0,VALID,100,VALID,-0.0169808,VALID,19.0207,VALID,76,VALID,0.860491,
2005-04-08, 03:04:00,VALID,917.627,VALID,0,VALID,100,VALID,0,VALID,18.9981,VALID,71,VALID,0.510045,
2005-04-08, 03:05:00,VALID,917.639,VALID,0,VALID,100,VALID,0,VALID,18.9817,VALID,71,VALID,0.155523,
2005-04-08, 03:06:00,VALID,917.623,VALID,0,VALID,100,VALID,0,VALID,18.9651,VALID,71,VALID,0.40968,
2005-04-08, 03:07:00,VALID,917.622,VALID,0,VALID,100,VALID,0,VALID,18.9723,VALID,97,VALID,0.707386,
2005-04-08, 03:08:00,VALID,917.606,VALID,0,VALID,100,VALID,0.0169808,VALID,18.9586,VALID,108,VALID,0.83194,
2005-04-08, 03:09:00,VALID,917.588,VALID,0,VALID,100,VALID,0,VALID,18.9658,VALID,108,VALID,0.661328,
2005-04-08, 03:10:00,VALID,917.586,VALID,0,VALID,100,VALID,0,VALID,18.9792,VALID,107,VALID,0.75343,
2005-04-08, 03:11:00,VALID,917.592,VALID,0,VALID,100,VALID,-0.0169808,VALID,19.0073,VALID,107,VALID,0.610899,
2005-04-08, 03:12:00,VALID,917.604,VALID,0,VALID,100,VALID,0,VALID,19.0269,VALID,107,VALID,0.472747,
2005-04-08, 03:13:00,VALID,917.618,VALID,0,VALID,100,VALID,-0.0169808,VALID,19.0331,VALID,107,VALID,0.316311,
2005-04-08, 03:14:00,VALID,917.618,VALID,0,VALID,100,VALID,0,VALID,19.0108,VALID,107,VALID,0.353561,
2005-04-08, 03:15:00,VALID,917.614,VALID,0,VALID,100,VALID,0,VALID,18.9976,VALID,107,VALID,0.43657,
2005-04-08, 03:16:00,VALID,917.6,VALID,0,VALID,100,VALID,0,VALID,18.969,VALID,107,VALID,0.191406,
2005-04-08, 03:17:00,VALID,917.576,VALID,0,VALID,100,VALID,0,VALID,18.8623,VALID,107,VALID,0,
2005-04-08, 03:18:00,VALID,917.57,VALID,0,VALID,100,VALID,0,VALID,18.7654,VALID,107,VALID,0,
2005-04-08, 03:19:00,VALID,917.577,VALID,0,VALID,100,VALID,-0.0169808,VALID,18.7265,VALID,107,VALID,0,
2005-04-08, 03:20:00,VALID,917.566,VALID,0,VALID,100,VALID,-0.0169808,VALID,18.7106,VALID,107,VALID,0,
2005-04-08, 03:21:00,VALID,917.57,VALID,0,VALID,100,VALID,-0.0169808,VALID,18.7013,VALID,107,VALID,0,
2005-04-08, 03:22:00,VALID,917.573,VALID,0,VALID,100,VALID,-0.0339617,VALID,18.6887,VALID,107,VALID,0.00545058,
2005-04-08, 03:23:00,VALID,917.574,VALID,0,VALID,100,VALID,-0.0339617,VALID,18.6914,VALID,107,VALID,0.299352,
2005-04-08, 03:24:00,VALID,917.577,VALID,0,VALID,100,VALID,-0.0339617,VALID,18.6946,VALID,107,VALID,0.223189,
2005-04-08, 03:25:00,VALID,917.623,VALID,0,VALID,100,VALID,0,VALID,18.7113,VALID,107,VALID,0,
2005-04-08, 03:26:00,VALID,917.641,VALID,0,VALID,100,VALID,-0.0509425,VALID,18.7013,VALID,107,VALID,0.100174,
2005-04-08, 03:27:00,VALID,917.649,VALID,0,VALID,100,VALID,-0.0679233,VALID,18.6239,VALID,107,VALID,0.0145833,
2005-04-08, 03:28:00,VALID,917.655,VALID,0,VALID,100,VALID,-0.0339617,VALID,18.5978,VALID,107,VALID,0.084484,
2005-04-08, 03:29:00,VALID,917.663,VALID,0,VALID,100,VALID,0,VALID,18.6135,VALID,107,VALID,0.295387,
2005-04-08, 03:30:00,VALID,917.685,VALID,0,VALID,100,VALID,-0.0509425,VALID,18.5528,VALID,80,VALID,0.3125,
2005-04-08, 03:31:00,VALID,917.698,VALID,0,VALID,100,VALID,0,VALID,18.575,VALID,6,VALID,0.621007,
2005-04-08, 03:32:00,VALID,917.672,VALID,0,VALID,100,VALID,-0.0509425,VALID,18.7013,VALID,5,VALID,0.513494,
2005-04-08, 03:33:00,VALID,917.678,VALID,0,VALID,100,VALID,-0.0339617,VALID,18.7498,VALID,5,VALID,0.315163,
2005-04-08, 03:34:00,VALID,917.679,VALID,0,VALID,100,VALID,-0.0679233,VALID,18.756,VALID,5,VALID,0.23088,
2005-04-08, 03:35:00,VALID,917.656,VALID,0,VALID,100,VALID,-0.0679233,VALID,18.6919,VALID,5,VALID,0.341211,
2005-04-08, 03:36:00,VALID,917.667,VALID,0,VALID,100,VALID,-0.0509425,VALID,18.6755,VALID,5,VALID,0.620999,
2005-04-08, 03:37:00,VALID,917.668,VALID,0,VALID,100,VALID,-0.0679233,VALID,18.7013,VALID,5,VALID,0.642624,
2005-04-08, 03:38:00,VALID,917.676,VALID,0,VALID,100,VALID,-0.0339617,VALID,18.7113,VALID,5,VALID,0.340199,
2005-04-08, 03:39:00,VALID,917.668,VALID,0,VALID,100,VALID,-0.0509425,VALID,18.6887,VALID,5,VALID,0.496185,